This is the latest recevied weather packets stored in our database for station/object VE3TEJ. If no packets are shown the sender has not sent any weather packets the latest 10 day(s).
| Time | Temp. | Humidity | Pressure | Rain* | Wind** | Luminosity | Snow |
|---|---|---|---|---|---|---|---|
| 1787841156 | 22.22° C | 74% | 1018.5 hPa | 0 mm | - | - | - |
| 1787840856 | 21.67° C | 75% | 1018.5 hPa | 0 mm | - | - | - |
| 1787840557 | 21.67° C | 76% | 1018.1 hPa | 0 mm | - | - | - |
| 1787840256 | 21.11° C | 79% | 1018.2 hPa | 0 mm | - | - | - |
| 1787839956 | 20.56° C | 80% | 1018.1 hPa | 0 mm | - | - | - |
| 1787839656 | 21.11° C | 81% | 1018.1 hPa | 0 mm | - | - | - |
| 1787839355 | 20.56° C | 81% | 1017.9 hPa | 0 mm | - | - | - |
| 1787839055 | 21.11° C | 80% | 1018 hPa | 0 mm | - | - | - |
| 1787838755 | 21.67° C | 79% | 1018 hPa | 0 mm | - | - | - |
| 1787838457 | 21.11° C | 79% | 1017.9 hPa | 0 mm | - | - | - |
| 1787838162 | 20.56° C | 81% | 1018 hPa | 0 mm | - | - | - |
| 1787837856 | 20.56° C | 82% | 1017.9 hPa | 0 mm | - | - | - |
| 1787837556 | 20.56° C | 82% | 1017.9 hPa | 0 mm | - | - | - |
| 1787837256 | 20° C | 83% | 1017.9 hPa | 0 mm | - | - | - |
| 1787836955 | 20° C | 84% | 1017.8 hPa | 0 mm | - | - | - |
| 1787836655 | 20° C | 85% | 1017.9 hPa | 0 mm | - | - | - |
| 1787836606 | 20° C | 85% | 1018.1 hPa | 0 mm | - | - | - |
| 1787836357 | 20° C | 85% | 1018 hPa | 0 mm | - | - | - |
| 1787836056 | 20° C | 85% | 1017.7 hPa | 0 mm | - | - | - |
| 1787835756 | 20° C | 87% | 1017.9 hPa | 0 mm | - | - | - |
| 1787835456 | 20° C | 88% | 1017.7 hPa | 0 mm | - | - | - |
| 1787835155 | 19.44° C | 88% | 1017.9 hPa | 0 mm | - | - | - |
| 1787834855 | 19.44° C | 89% | 1017.6 hPa | 0 mm | - | - | - |
| 1787834555 | 18.89° C | 90% | 1017.5 hPa | 0 mm | - | - | - |
| 1787834257 | 18.89° C | 90% | 1017.5 hPa | 0 mm | - | - | - |
* Rain latest hour (hover to see other rain measurements)
** Current wind speed in m/s (hover to see current wind gust speed)